Location: Dana
(41.8364°N, 106.7042°W)
Time: 14:40:16
(UTC+00:00)

SR - Pass Details

Date: 13 May 2026
Orbit: 567 x 853 km, 66.7° (Epoch: 7 June)

Event Time Altitude Azimuth Distance (km) Brightness Sun altitude
Rises 21:37:38 0° 339° (NNW) 3,346 ? 49.8°
Reaches altitude 10° 21:40:58 10° 360° (N) 2,447 ? 49.3°
Maximum altitude 21:44:36 17° 40° (NE) 2,015 ? 48.6°
Drops below altitude 10° 21:48:17 10° 80° (E) 2,482 ? 48.0°
Sets 21:51:41 0° 99° (E) 3,413 ? 47.4°
